Retour au catalogue

STARLINK-32092

ActifCommunicationsVLEO
NORAD 59700·PAYLOAD·🇺🇸 United States

Lancé May 8, 2024 depuis Cape Canaveral Space Force Station

Loading…

Prochains Passages (prochaines 24 heures)

TLE

FraisSource: CelesTrak SupGP

Époque: Sep 14, 2026, 21:20 UTC

1 59700C 24086U   26257.88937500  .00030944  00000+0  11212-2 0  2578
2 59700  43.0037  71.5011 0001437 276.5044 188.7342 15.27551295    14

Suivez STARLINK-32092 en temps réel avec AllMySat

Download on the App Store